Flag for Madagascar Weather past 2 weeks in Antananarivo, Madagascar

Now
79 °F

Partly sunny.


Feels Like: 82 °F
Forecast: 58 / 84 °F
Wind: 5 mph from Northwest

Location: Antananarivo / Ivato

Current Time: Mar 30, 2015 at 11:05:25 AM

Latest Report: Mar 30, 2015 at 10:30 AM


Visibility: N/A

Pressure: 30.18 "Hg

Humidity: 79%

Dew point: 72 °F

Location of AntananarivoLocation

Historic Weather in Antananarivo — Graph

°F

Antananarivo temperature yesterday

Maximum temperature yesterday: 81 °F (at 1:00 PM)
Minimum temperature yesterday: 63 °F (at 6:00 AM)
Average temperature yesterday: 71 °F

Past Weeks' High & Low Weather Summary

 TemperatureHumidityPressure
High86 °F (Mar 18, 2:30 PM)100% (Mar 15, 6:00 PM)30.27 "Hg (Mar 15, 6:00 PM)
Low57 °F (Mar 17, 5:00 AM)43% (Mar 19, 2:30 PM)30.07 "Hg (Mar 28, 3:00 PM)
Average70 °F88%30.19 "Hg
* Reported Mar 15 10:00 AM — Mar 30 10:00 AM, Antananarivo, Weather by CustomWeather, © 2015

Note: Actual official high and low records may vary slightly from our data, if they occured in-between our weather recording intervals... More about our weather records

Advertising

Antananarivo weather history for previous 24 hours

 ConditionsComfort  
Time TempWeatherWind HumidityBarometerVisibility
10:00 AM
Mon, Mar 30
75 °FScattered clouds.2 mph89%30.18 "HgN/A
9:30 AM73 °FScattered clouds.1 mph94%30.18 "Hg6 mi
9:00 AM72 °FScattered clouds.2 mph100%30.18 "Hg5 mi
8:30 AM68 °FBroken clouds.3 mph100%30.18 "Hg4 mi
8:00 AM66 °FBroken clouds.2 mph100%30.18 "Hg4 mi
7:30 AM64 °FScattered clouds.1 mph100%30.18 "HgN/A
7:00 AM63 °FScattered clouds.1 mph100%30.15 "HgN/A
6:30 AM61 °FScattered clouds.5 mph100%30.15 "HgN/A
6:00 AM59 °FScattered clouds.1 mph100%30.15 "HgN/A
5:30 AM59 °FPassing clouds.5 mph100%30.15 "HgN/A
5:00 AM59 °FPassing clouds.2 mph100%30.12 "HgN/A
4:30 AM61 °FPassing clouds.6 mph100%30.12 "HgN/A
4:00 AM61 °FPassing clouds.2 mph100%30.12 "HgN/A
3:30 AM61 °FPassing clouds.No wind100%30.12 "HgN/A
3:00 AM61 °FPassing clouds.No wind100%30.12 "HgN/A
2:30 AM61 °FPassing clouds.2 mph100%30.12 "HgN/A
2:00 AM61 °FThundershowers. Passing clouds.3 mph100%30.12 "HgN/A
1:30 AM63 °FThundershowers. Passing clouds.1 mph100%30.12 "HgN/A
1:00 AM63 °FPassing clouds.3 mph100%30.12 "HgN/A
12:30 AM64 °FThundershowers. Passing clouds.6 mph100%30.12 "HgN/A
12:00 AM64 °FThundershowers. Passing clouds.5 mph100%30.15 "HgN/A
11:30 PM
Sun, Mar 29
64 °FThundershowers. Passing clouds.5 mph100%30.15 "HgN/A
11:00 PM64 °FThundershowers. Passing clouds.3 mph100%30.15 "HgN/A
10:30 PM66 °FThundershowers. Passing clouds.6 mph100%30.18 "HgN/A
10:00 PM66 °FThundershowers. Passing clouds.7 mph100%30.15 "HgN/A
9:30 PM66 °FThundershowers. Passing clouds.3 mph100%30.15 "HgN/A
9:00 PM66 °FThundershowers. Passing clouds.7 mph100%30.15 "HgN/A
8:30 PM68 °FThundershowers. Passing clouds.7 mph100%30.15 "HgN/A
8:00 PM68 °FThundershowers. Passing clouds.8 mph94%30.15 "HgN/A
7:30 PM70 °FThundershowers. Passing clouds.8 mph88%30.15 "HgN/A
7:00 PM70 °FPassing clouds.5 mph88%30.12 "HgN/A
6:30 PM72 °FPassing clouds.6 mph83%30.09 "HgN/A
6:00 PM72 °FPassing clouds.9 mph83%30.09 "HgN/A
5:30 PM75 °FPartly sunny.10 mph74%30.09 "HgN/A
5:00 PM77 °FPartly sunny.8 mph61%30.09 "HgN/A
4:30 PM79 °FWarm.N/A58%30.07 "HgN/A
4:00 PM81 °FScattered clouds.10 mph58%30.07 "HgN/A
3:30 PM81 °FPartly sunny.9 mph62%30.07 "HgN/A
3:00 PM79 °FPartly sunny.8 mph65%30.07 "HgN/A
2:30 PM81 °FPartly sunny.8 mph66%30.09 "HgN/A
2:00 PM81 °FPartly sunny.3 mph58%30.09 "HgN/A
1:30 PM81 °FPartly sunny.7 mph62%30.09 "HgN/A
1:00 PM81 °FPartly sunny.5 mph62%30.09 "HgN/A
12:30 PM79 °FPartly sunny.3 mph65%30.12 "HgN/A
12:00 PM79 °FPartly sunny.6 mph65%30.12 "HgN/A
11:30 AM79 °FWarm.5 mph65%30.12 "HgN/A
11:00 AM77 °FWarm.5 mph74%30.15 "HgN/A
Weather by CustomWeather, © 2015

See weather overviewHow to use our weather pages